星链-6305 (STARLINK-6305 )

导读 | 星芒AI

STARLINK-6305 是 SpaceX Starlink 卫星互联网项目中的一颗低轨通信卫星。该卫星属于 Starlink 任务的第 35 批次(组网任务 63),于 2023 年发射,旨在为全球用户提供高速互联网服务。它运行在约 550 公里的轨道高度,采用先进的推进系统和激光通信技术,以提高网络效率和减少延迟。Starlink 项目致力于构建覆盖全球的卫星宽带网络,尤其服务于偏远地区。

基本信息
目录编号:
56394
目录名称:
STARLINK-6305
国际标识:
2023-061W
轨道中心:
EARTH
卫星名称:
星链-6305
卫星全名:
星链-6305 (STARLINK-6305 )
卫星状态:
在轨 (已飞行962 天)
发射日期:
2023-05-04 UTC
国别 :
美国 (US)
星等 :
--
轨道信息
数据来源 国际轨道数据
星历时间: 2025-12-21T17:40:28+0800
9小时前
查看轨道信息
半长轴: 6937.227km
偏心率: 0.0001102
轨道倾角: 43.004°
近地点辐角 268.490°
升交点赤经 250.257°
平近点角 91.581°
近地点: 558.325km
远地点: 559.855km
周期: 95.838分钟
每日圈数: 15.025326
详细信息
固有亮度:
5
最大亮度:
2.5
卫星平台:
Starlink v1.5
覆盖范围:
全球
运营商:
太空探索技术公司
运营商所在国:
美国
制造商(研发单位):
太空探索技术公司
制造商所在国:
美国
使用方式:
暂无
卫星简介
星链(Starlink)计划是由太空探索技术公司(SpaceX)提出的一个巨型低轨卫星互联网星座项目,计划在2019年至2024年间在太空搭建由约1.2万颗卫星组成的“星链”网络,其中1584颗将部署在地球上空550千米处的近地轨道,并从2020年开始工作。该卫星仍在工作。
2D轨道图
3D轨道图
轨道高度分析图
轨道倾角分析图
轨道综合分析图
查看轨道综合分析图